Wind_Speed
10 12 13 14 14 14 14 14 14 15 15 14 12 11 10 9 8 7 6 5 4 4 4 5 5 6 7 8 10 12 14 16 17 18 18 17 16 16 15 15 14 13 12
8 10 11 12 12 13 13 13 14 14 14 14 13 11 10 9 7 6 6 5 4 4 3 3 4 6 7 8 8 10 12 14 16 17 17 18 17 17 17 16 15 14 14
7 8 9 11 11 12 12 13 13 14 14 13 13 12 10 9 8 6 5 4 4 3 2 2 3 5 7 8 9 9 11 12 13 16 16 17 17 17 18 17 16 16 15
6 7 8 9 10 10 11 12 13 13 13 13 13 12 11 9 8 6 5 4 3 2 2 2 3 4 6 8 10 11 11 12 12 13 14 15 15 15 16 17 17 16 16
6 6 7 8 8 9 10 11 11 12 12 12 12 11 11 10 9 7 5 3 2 2 1 2 3 4 6 7 9 11 12 12 12 13 13 12 13 14 15 15 15 15 15
6 6 6 7 7 8 8 9 10 10 11 11 11 11 10 9 9 8 6 4 2 1 1 2 2 3 4 6 8 10 12 12 11 11 12 11 11 12 12 12 12 13 14
5 5 6 6 6 6 6 7 8 8 9 9 10 9 9 9 8 8 7 5 3 2 1 1 2 3 3 4 7 9 11 12 11 11 11 11 11 11 10 10 10 12 12
4 4 4 4 4 4 4 5 5 6 7 7 8 8 8 8 8 8 7 6 4 3 1 0 2 2 3 4 5 7 10 11 11 11 11 12 12 11 10 9 9 10 11
3 3 3 3 2 2 1 1 2 4 5 5 6 6 6 7 7 7 7 6 5 4 2 1 1 2 2 3 4 6 8 10 11 11 11 12 12 12 11 10 10 10 11
2 1 1 1 2 2 2 2 2 2 3 4 4 4 4 5 5 5 6 5 5 4 3 2 2 2 2 3 4 6 8 9 11 12 12 12 12 12 12 12 11 12 13
2 1 2 3 4 4 5 5 5 4 4 4 4 4 4 3 3 3 4 4 4 4 5 4 3 2 3 3 5 6 8 9 10 11 12 12 13 13 14 14 13 13 14
3 3 4 5 6 6 7 8 8 7 7 6 6 6 5 5 4 3 3 3 4 4 5 4 4 3 3 4 5 6 8 9 9 10 11 12 13 13 13 14 15 15 14
5 6 6 7 8 9 9 9 10 10 9 9 9 8 8 7 6 5 4 4 4 5 5 5 4 3 4 4 6 7 9 9 10 11 11 11 11 11 12 13 14 15 15
8 8 9 10 10 11 11 11 11 12 12 12 11 10 10 10 9 8 7 7 6 6 6 6 5 5 5 5 7 8 10 11 12 12 12 12 11 11 11 13 13 14 14
11 12 12 13 13 13 14 14 13 13 13 13 13 13 12 11 11 10 9 9 9 8 7 7 6 6 6 6 7 8 10 12 13 15 15 15 15 14 13 13 13 14 14
16 16 16 16 16 16 15 15 15 15 14 14 14 14 14 13 13 12 12 12 11 10 10 9 8 7 7 8 8 9 11 12 14 16 17 17 17 17 17 17 17 16 16
19 19 19 19 18 18 18 17 16 16 16 15 15 15 15 15 14 13 14 14 13 12 12 12 11 9 9 9 10 11 12 13 14 16 17 19 19 20 20 20 20 20 19
22 22 21 21 20 20 19 18 18 17 16 16 16 16 16 16 16 15 15 15 14 15 15 14 13 12 11 12 12 12 13 14 15 16 17 19 20 21 22 23 23 23 23
26 25 24 23 23 22 21 21 20 19 18 17 17 17 17 17 17 17 16 16 16 16 15 14 14 15 15 14 14 14 14 14 15 17 18 19 20 21 22 23 24 24 24
29 27 26 25 25 25 24 24 23 23 21 20 20 20 20 20 19 18 18 18 18 17 17 16 17 17 17 17 17 17 17 16 17 18 19 20 21 22 22 23 23 24 25
31 30 29 28 28 28 27 27 27 26 24 24 23 23 22 22 21 20 20 19 19 19 19 18 19 19 19 20 20 20 20 20 20 20 20 21 22 23 23 23 23 23 24
35 33 32 31 31 30 31 30 30 29 28 27 26 26 25 23 22 22 21 20 20 20 20 20 21 21 21 21 21 22 22 23 23 22 22 22 23 24 24 23 23 23 23
37 36 35 34 34 34 34 34 33 33 31 30 29 28 27 25 24 23 22 21 21 21 21 21 21 22 22 23 23 24 25 25 25 24 24 24 24 25 25 24 23 23 23
38 38 38 37 37 37 37 37 38 37 35 34 32 30 29 28 25 23 23 22 22 22 23 23 23 23 24 24 25 25 26 27 27 27 27 26 26 26 25 25 24 24 24
37 39 40 40 40 39 39 39 39 40 38 38 35 33 30 28 26 24 23 23 24 24 24 24 24 24 24 25 25 26 27 27 28 28 27 27 26 26 26 26 26 25 24
36 39 41 42 42 41 41 41 41 42 40 38 36 34 33 30 27 25 23 24 24 24 24 24 24 25 25 25 26 26 26 26 27 27 27 27 25 24 25 26 26 26 25
Wind_Direction
78 74 75 78 78 75 72 69 66 65 66 67 69 72 76 82 88 91 96 104 117 137 156 173 185 192 200 206 212 215 218 221 224 223 224 228 234 238 240 242 244 247 251
89 80 76 77 79 76 74 70 65 63 62 63 65 69 74 78 83 89 95 102 109 124 150 173 192 203 206 207 208 213 219 224 227 226 227 229 235 239 241 241 242 246 250
107 90 81 79 79 77 75 71 66 63 61 61 63 67 71 74 78 83 90 101 111 123 147 186 208 216 215 214 214 215 218 222 228 228 231 233 237 239 239 238 241 245 249
126 105 90 82 79 76 74 72 68 64 61 60 60 64 67 70 71 75 84 99 116 128 158 204 226 229 224 222 221 220 222 224 227 229 232 234 236 236 235 236 240 244 246
139 120 103 90 82 78 75 73 70 66 61 59 58 61 65 67 68 69 74 90 120 147 182 216 236 238 232 228 226 225 224 225 228 228 229 233 234 233 233 234 237 238 237
144 129 115 101 89 82 78 75 72 68 62 58 57 59 62 65 67 66 67 76 101 143 191 225 237 239 233 229 226 223 222 222 225 226 227 228 227 224 226 227 229 232 233
147 137 124 111 100 88 81 75 71 65 61 57 55 58 59 61 65 66 65 67 77 102 157 222 234 234 229 226 222 218 217 220 223 221 225 223 219 220 219 219 227 227 224
148 147 136 125 113 100 86 73 64 54 50 50 49 51 55 58 62 64 64 63 62 66 68 251 240 238 234 228 218 214 215 217 221 226 227 222 221 224 221 221 222 220 218
138 150 151 148 145 135 109 53 40 35 31 29 32 37 45 50 55 57 57 55 52 45 34 5 293 260 248 242 225 217 214 216 224 227 229 227 227 226 226 228 227 223 214
101 140 188 212 233 246 260 286 316 341 354 359 1 8 19 31 41 47 48 47 42 32 17 0 335 291 263 250 233 222 218 220 225 229 230 229 228 229 232 231 231 227 221
49 14 296 276 265 265 269 275 283 291 305 313 318 322 330 342 1 26 31 30 26 17 8 1 346 315 276 258 243 231 226 226 227 229 230 231 232 233 233 231 231 229 227
355 332 314 298 284 275 272 273 276 278 285 289 294 293 293 297 301 317 344 356 355 352 350 348 343 320 289 267 255 245 238 235 231 229 231 233 236 236 234 232 231 230 226
317 312 305 298 290 282 274 273 276 277 278 278 278 278 274 274 275 279 293 311 324 328 331 326 323 314 296 278 265 256 250 245 242 240 235 236 238 237 235 232 231 226 220
294 297 296 294 289 284 277 272 271 274 275 274 271 271 269 265 264 266 277 286 296 305 313 312 310 305 298 285 272 263 258 255 251 247 242 240 238 236 234 229 226 222 219
287 290 289 287 286 283 280 273 268 268 270 271 270 267 264 260 258 261 270 276 284 291 298 299 299 301 299 292 282 272 265 261 257 253 249 246 243 239 237 233 226 221 221
287 289 291 289 286 283 280 276 271 267 266 266 267 263 259 256 254 258 267 272 277 283 287 288 288 289 290 289 285 278 272 266 261 258 255 252 249 245 242 238 232 229 229
285 289 292 293 290 285 279 275 272 267 262 260 261 258 253 252 252 257 263 268 270 271 278 281 282 282 282 286 286 282 278 273 266 261 257 254 251 249 247 243 241 238 237
283 287 289 290 289 287 282 274 271 267 261 257 257 254 249 249 252 259 261 264 268 267 269 275 279 282 282 284 285 285 282 277 272 266 261 257 254 251 249 248 246 244 243
279 282 285 286 286 285 283 277 272 268 261 257 254 250 248 249 253 256 259 262 267 266 267 270 274 278 281 283 282 282 283 281 277 272 266 261 257 254 253 251 249 248 247
275 277 279 280 282 282 281 278 273 269 262 257 253 251 250 251 254 255 257 260 264 264 264 266 271 275 277 280 281 281 281 282 281 277 271 266 261 257 256 254 252 251 249
270 271 273 273 275 277 277 275 272 267 263 259 255 253 251 251 251 252 256 259 261 262 262 265 270 273 274 277 279 279 278 280 281 278 274 269 265 261 258 256 255 254 252
265 266 268 268 270 272 271 271 269 267 265 262 258 253 249 248 252 253 255 258 259 261 262 266 270 273 275 276 277 278 278 278 280 277 275 271 266 262 259 257 256 255 254
260 261 262 264 266 266 266 267 266 266 265 263 260 256 251 249 249 252 256 258 260 262 263 266 269 273 274 276 277 276 277 278 279 276 275 273 269 262 259 258 257 257 256
257 257 257 259 261 261 262 263 264 263 263 260 259 257 253 250 249 250 254 258 261 263 265 269 271 272 273 275 277 274 275 277 277 277 275 272 269 263 259 257 257 257 257
257 255 254 255 255 256 257 259 260 261 261 258 256 257 255 252 247 248 254 258 261 264 267 271 273 274 275 274 274 273 275 275 275 277 276 273 270 262 259 256 255 255 256
258 255 253 253 253 254 254 256 258 258 258 257 256 260 257 254 249 249 255 258 260 265 269 272 274 274 275 274 273 272 273 274 274 277 276 273 269 263 259 256 254 253 254
Height
5909 5908 5908 5907 5907 5907 5906 5906 5905 5904 5903 5902 5901 5900 5899 5898 5897 5897 5897 5897 5897 5898 5898 5898 5899 5899 5900 5901 5902 5903 5905 5906 5908 5909 5911 5912 5913 5915 5916 5916 5917 5918 5919
5909 5909 5909 5908 5908 5908 5908 5907 5906 5905 5904 5903 5902 5901 5900 5899 5898 5898 5898 5898 5898 5898 5898 5898 5898 5899 5900 5900 5901 5902 5903 5905 5906 5907 5909 5910 5911 5912 5913 5914 5915 5916 5917
5910 5910 5909 5909 5909 5909 5909 5908 5908 5907 5906 5905 5904 5902 5901 5900 5899 5899 5898 5898 5898 5898 5898 5898 5898 5898 5899 5899 5900 5901 5902 5903 5904 5905 5907 5908 5909 5910 5911 5912 5913 5914 5915
5910 5910 5910 5910 5910 5910 5910 5909 5909 5908 5907 5906 5905 5904 5902 5901 5900 5899 5898 5898 5897 5897 5897 5897 5897 5897 5898 5898 5899 5900 5901 5902 5903 5904 5905 5906 5906 5907 5909 5910 5911 5912 5913
5910 5910 5911 5911 5911 5911 5911 5910 5910 5909 5909 5907 5906 5905 5903 5902 5901 5900 5899 5898 5897 5897 5897 5896 5896 5896 5897 5897 5897 5898 5899 5900 5901 5902 5903 5904 5905 5905 5907 5907 5908 5909 5911
5910 5910 5911 5911 5911 5911 5911 5911 5911 5910 5910 5909 5907 5906 5904 5903 5902 5901 5899 5898 5898 5897 5896 5896 5896 5895 5896 5896 5896 5897 5897 5899 5900 5901 5901 5902 5903 5904 5905 5905 5906 5907 5908
5910 5910 5911 5911 5911 5912 5911 5911 5911 5911 5910 5909 5908 5907 5905 5904 5902 5901 5900 5899 5898 5897 5896 5895 5895 5895 5895 5895 5895 5895 5896 5897 5898 5899 5900 5901 5902 5903 5904 5904 5905 5906 5907
5910 5910 5910 5911 5911 5911 5911 5911 5911 5910 5910 5909 5908 5907 5906 5904 5903 5902 5900 5899 5898 5897 5896 5895 5894 5894 5894 5894 5894 5894 5895 5896 5897 5898 5898 5899 5900 5902 5903 5903 5904 5904 5906
5910 5910 5910 5910 5911 5911 5911 5911 5910 5910 5909 5909 5908 5907 5906 5905 5903 5902 5901 5899 5898 5897 5896 5894 5894 5893 5893 5893 5893 5894 5894 5895 5896 5896 5897 5898 5899 5900 5901 5902 5903 5903 5904
5909 5910 5910 5910 5910 5910 5910 5910 5910 5909 5909 5908 5907 5906 5905 5904 5903 5902 5901 5899 5898 5897 5895 5894 5893 5893 5893 5893 5893 5893 5893 5894 5895 5895 5896 5896 5897 5898 5899 5900 5901 5902 5903
5909 5909 5909 5909 5909 5909 5909 5909 5908 5908 5907 5907 5906 5905 5904 5904 5902 5901 5900 5899 5898 5896 5895 5894 5893 5893 5892 5892 5892 5892 5892 5893 5893 5894 5894 5895 5896 5897 5897 5898 5899 5900 5901
5908 5908 5908 5908 5908 5908 5907 5907 5906 5906 5905 5905 5904 5904 5903 5902 5901 5900 5899 5898 5897 5896 5895 5894 5893 5892 5892 5891 5891 5891 5891 5891 5892 5893 5893 5894 5894 5895 5895 5896 5897 5898 5899
5907 5907 5907 5906 5906 5906 5905 5905 5904 5904 5903 5902 5902 5901 5901 5900 5900 5899 5898 5897 5896 5895 5894 5893 5892 5891 5891 5890 5890 5890 5890 5890 5891 5891 5892 5892 5893 5893 5893 5894 5895 5896 5897
5905 5905 5905 5904 5904 5903 5903 5902 5901 5901 5900 5900 5899 5899 5899 5898 5898 5897 5896 5895 5895 5894 5893 5892 5891 5890 5889 5889 5889 5889 5889 5889 5889 5890 5890 5891 5891 5892 5892 5893 5894 5895 5895
5902 5902 5902 5901 5901 5900 5899 5899 5898 5898 5897 5897 5896 5896 5896 5895 5895 5895 5894 5893 5893 5892 5891 5891 5890 5889 5888 5888 5887 5887 5887 5887 5887 5887 5888 5888 5889 5890 5890 5891 5892 5893 5894
5899 5899 5898 5898 5897 5896 5895 5894 5894 5893 5893 5893 5892 5892 5892 5892 5892 5892 5892 5891 5890 5890 5889 5889 5888 5887 5887 5886 5886 5885 5885 5885 5885 5885 5885 5886 5886 5887 5888 5889 5889 5890 5891
5895 5894 5894 5893 5893 5892 5891 5890 5889 5889 5889 5889 5888 5888 5888 5889 5889 5889 5888 5888 5887 5887 5886 5886 5886 5885 5884 5884 5884 5883 5883 5883 5882 5882 5882 5882 5883 5884 5885 5886 5887 5888 5889
5890 5890 5889 5888 5888 5887 5886 5885 5884 5884 5884 5884 5884 5884 5884 5885 5885 5885 5885 5884 5884 5884 5883 5883 5883 5883 5882 5881 5881 5881 5880 5880 5879 5879 5878 5878 5879 5879 5880 5881 5883 5884 5885
5884 5884 5884 5883 5882 5881 5881 5880 5880 5879 5879 5880 5880 5880 5880 5881 5881 5881 5881 5881 5880 5880 5880 5880 5879 5879 5879 5878 5878 5877 5877 5876 5876 5875 5875 5875 5875 5875 5876 5877 5878 5879 5880
5878 5878 5878 5877 5876 5876 5875 5875 5874 5874 5874 5874 5875 5876 5876 5876 5877 5877 5877 5876 5876 5876 5876 5876 5876 5875 5874 5874 5874 5873 5873 5873 5872 5871 5871 5870 5870 5871 5871 5872 5873 5874 5875
5871 5871 5871 5871 5870 5870 5869 5869 5868 5868 5868 5869 5869 5870 5871 5871 5871 5872 5872 5871 5871 5871 5871 5871 5871 5871 5870 5870 5869 5869 5869 5868 5867 5867 5866 5866 5865 5866 5866 5867 5867 5868 5870
5864 5864 5865 5865 5864 5864 5863 5862 5862 5861 5861 5862 5862 5863 5864 5865 5866 5866 5866 5866 5866 5866 5867 5867 5867 5866 5865 5865 5865 5864 5864 5864 5863 5862 5861 5861 5860 5860 5861 5861 5862 5863 5864
5855 5856 5857 5857 5857 5857 5857 5855 5855 5854 5854 5855 5855 5856 5857 5858 5859 5860 5860 5861 5861 5861 5861 5861 5861 5861 5860 5860 5859 5859 5859 5858 5857 5857 5856 5855 5855 5855 5856 5856 5857 5858 5859
5846 5847 5848 5849 5850 5850 5849 5849 5847 5846 5846 5847 5847 5848 5849 5851 5852 5853 5854 5855 5855 5855 5855 5855 5855 5855 5855 5854 5853 5853 5853 5852 5851 5850 5850 5849 5849 5849 5850 5851 5851 5852 5853
5837 5838 5839 5840 5841 5841 5842 5842 5841 5839 5839 5838 5839 5840 5842 5843 5845 5846 5847 5848 5849 5849 5849 5849 5849 5849 5849 5848 5847 5846 5845 5845 5844 5844 5843 5843 5843 5843 5844 5845 5845 5846 5847
5827 5828 5829 5830 5831 5833 5834 5834 5834 5833 5832 5830 5830 5833 5835 5836 5837 5839 5840 5841 5842 5842 5842 5843 5842 5842 5841 5841 5840 5839 5839 5838 5838 5837 5837 5836 5837 5837 5838 5839 5839 5840 5841